This is the latest recevied weather packets stored in our database for station/object IN3XSV-13. If no packets are shown the sender has not sent any weather packets the latest 10 day(s).
| Time | Temp. | Humidity | Pressure | Rain* | Wind** | Luminosity | Snow |
|---|---|---|---|---|---|---|---|
| 1787632372 | 17.78° C | 86% | 1006.3 hPa | 0 mm | - | - | - |
| 1787632072 | 17.78° C | 85% | 1006.2 hPa | 0 mm | - | - | - |
| 1787631772 | 17.78° C | 85% | 1006.1 hPa | 0 mm | - | - | - |
| 1787631472 | 17.78° C | 84% | 1006.3 hPa | 0.51 mm | - | - | - |
| 1787631172 | 17.78° C | 84% | 1006.5 hPa | 0.51 mm | - | - | - |
| 1787630872 | 17.78° C | 85% | 1006.3 hPa | 0.51 mm | - | - | - |
| 1787630572 | 17.22° C | 86% | 1006.3 hPa | 0.51 mm | - | - | - |
| 1787630272 | 17.78° C | 85% | 1006.5 hPa | 1.02 mm | - | - | - |
| 1787629972 | 17.78° C | 85% | 1006.4 hPa | 1.02 mm | - | - | - |
| 1787629672 | 17.78° C | 85% | 1006.4 hPa | 1.02 mm | - | - | - |
| 1787629372 | 17.22° C | 86% | 1006.6 hPa | 1.52 mm | - | - | - |
| 1787629072 | 17.22° C | 86% | 1006.8 hPa | 2.03 mm | - | - | - |
| 1787628772 | 17.78° C | 84% | 1006.8 hPa | 2.54 mm | - | - | - |
| 1787628472 | 17.78° C | 84% | 1006.9 hPa | 2.54 mm | - | - | - |
| 1787628172 | 17.78° C | 84% | 1007 hPa | 2.54 mm | - | - | - |
| 1787627872 | 17.78° C | 83% | 1007.1 hPa | 2.03 mm | - | - | - |
| 1787627572 | 17.78° C | 83% | 1007.2 hPa | 2.03 mm | - | - | - |
| 1787627272 | 17.78° C | 82% | 1007.3 hPa | 2.03 mm | - | - | - |
| 1787626972 | 18.33° C | 81% | 1007.3 hPa | 2.03 mm | - | - | - |
| 1787626672 | 18.33° C | 81% | 1007.2 hPa | 1.52 mm | - | - | - |
| 1787626372 | 18.33° C | 80% | 1007.2 hPa | 1.52 mm | - | - | - |
| 1787626072 | 18.89° C | 79% | 1007.3 hPa | 1.02 mm | - | - | - |
| 1787625772 | 18.89° C | 78% | 1007.4 hPa | 1.02 mm | - | - | - |
| 1787625472 | 19.44° C | 75% | 1007.5 hPa | 0.51 mm | - | - | - |
| 1787625172 | 20° C | 73% | 1007.5 hPa | 0 mm | - | - | - |
* Rain latest hour (hover to see other rain measurements)
** Current wind speed in m/s (hover to see current wind gust speed)